Weather History for Fort Morgan, CO

Change the Weather History Date:

Wednesday, February 6, 2013

  Actual Average (KAKO) Record (KAKO)
Temperature  
Mean Temperature 42 °F 30 °F  
Max Temperature 55 °F 41 °F 66 °F (1950)
Min Temperature 29 °F 18 °F -13 °F (2014)
Degree Days  
Heating Degree Days 23    
Month to date heating degree days  
Cooling Degree Days 0    
Month to date cooling degree days  
Moisture  
Dew Point 20 °F    
Average Humidity 45    
Maximum Humidity 71    
Minimum Humidity 27    
Precipitation  
Precipitation 0.00 in 0.02 in 0.04 in (1971)
Month to date precipitation 0.09  
Year to date precipitation 0.39  
Sea Level Pressure  
Sea Level Pressure 29.87 in    
Wind  
Wind Speed 6 mph (NW)    
Max Wind Speed 24 mph    
Max Gust Speed 30 mph    
Visibility 10 miles    
Events      
T = Trace of Precipitation, MM = Missing Value Source: NWS Daily Summary

Daily Weather History Graph

Daily Weather History Graph

Search for Another Location

Airport:

Trip Planner

Search our weather history database for the weather conditions in past years. The results will help you decide how hot, cold, wet, or windy it might be!

Date:

Astronomy

Feb. 06, 2013 Rise Set
Actual Time 6:58 AM MST 5:20 PM MST
Civil Twilight 6:30 AM MST 5:48 PM MST
Nautical Twilight 5:58 AM MST 6:20 PM MST
Astronomical Twilight 5:26 AM MST 6:52 PM MST
Moon 3:45 AM MST (2/6) 1:40 PM MST (2/6)
Length of Visible Light 11h 18m
Length of Day
10h 21m
Waning Crescent, 16% of the Moon is Illuminated
Feb 6
Waning Crescent
Feb 10
New
Feb 17
First Quarter
Feb 25
Full
Mar 4
Last Quarter

Hourly Weather History & Observations

Time (MST) Temp. Windchill Dew Point Humidity Pressure Visibility Wind Dir Wind Speed Gust Speed Precip Events Conditions
12:15 AM 42.1 °F - 16.3 °F 35% 29.84 in 10.0 mi Calm Calm - N/A   Clear
12:35 AM 37.6 °F - 16.9 °F 43% 29.83 in 10.0 mi Calm Calm - N/A   Clear
12:55 AM 40.3 °F - 16.7 °F 39% 29.83 in 10.0 mi Calm Calm - N/A   Clear
1:15 AM 39.2 °F - 16.7 °F 40% 29.82 in 10.0 mi Calm Calm - N/A   Clear
1:35 AM 36.3 °F - 16.9 °F 45% 29.82 in 10.0 mi Calm Calm - N/A   Clear
1:55 AM 37.0 °F - 16.9 °F 44% 29.81 in 10.0 mi Calm Calm - N/A   Clear
2:15 AM 37.4 °F 33.8 °F 17.2 °F 44% 29.81 in 10.0 mi WNW 4.6 mph - N/A   Clear
2:35 AM 35.6 °F 32.8 °F 18.0 °F 49% 29.81 in 10.0 mi West 3.5 mph - N/A   Clear
2:55 AM 36.3 °F 33.7 °F 18.3 °F 48% 29.81 in 10.0 mi SW 3.5 mph - N/A   Clear
3:15 AM 35.6 °F 30.7 °F 18.3 °F 50% 29.80 in 10.0 mi West 5.8 mph - N/A   Clear
3:35 AM 32.5 °F 26.2 °F 18.5 °F 56% 29.80 in 10.0 mi West 6.9 mph - N/A   Clear
3:55 AM 34.2 °F 30.0 °F 18.5 °F 53% 29.80 in 10.0 mi WNW 4.6 mph - N/A   Clear
4:15 AM 32.9 °F 29.8 °F 18.3 °F 55% 29.80 in 10.0 mi WNW 3.5 mph - N/A   Clear
4:35 AM 32.0 °F - 18.3 °F 57% 29.80 in 10.0 mi Calm Calm - N/A   Clear
4:55 AM 31.1 °F - 18.3 °F 59% 29.80 in 10.0 mi Calm Calm - N/A   Clear
5:15 AM 29.8 °F 23.9 °F 18.7 °F 63% 29.80 in 10.0 mi West 5.8 mph - N/A   Clear
5:35 AM 29.7 °F 21.3 °F 19.8 °F 67% 29.80 in 10.0 mi West 9.2 mph - N/A   Clear
6:15 AM 29.8 °F 20.9 °F 21.0 °F 70% 29.80 in 10.0 mi West 10.4 mph - N/A   Clear
6:35 AM 30.2 °F 20.8 °F 21.0 °F 69% 29.80 in 10.0 mi West 11.5 mph - N/A   Clear
6:55 AM 30.0 °F 21.7 °F 21.0 °F 69% 29.81 in 10.0 mi West 9.2 mph - N/A   Clear
7:15 AM 30.7 °F 24.1 °F 21.2 °F 68% 29.81 in 10.0 mi West 6.9 mph - N/A   Clear
7:35 AM 31.5 °F 24.2 °F 21.7 °F 67% 29.81 in 10.0 mi West 8.1 mph - N/A   Clear
7:55 AM 32.7 °F 27.3 °F 21.9 °F 64% 29.83 in 10.0 mi NNW 5.8 mph 9.2 mph N/A   Mostly Cloudy
8:15 AM 38.7 °F 32.9 °F 20.3 °F 48% 29.83 in 10.0 mi NW 8.1 mph - N/A   Overcast
8:35 AM 39.7 °F 32.7 °F 20.5 °F 46% 29.83 in 10.0 mi West 11.5 mph - N/A   Overcast
8:55 AM 42.1 °F 37.1 °F 20.5 °F 42% 29.83 in 10.0 mi West 8.1 mph - N/A   Overcast
9:15 AM 47.3 °F - 21.0 °F 35% 29.83 in 10.0 mi West 11.5 mph - N/A   Overcast
9:35 AM 49.1 °F - 20.3 °F 32% 29.84 in 10.0 mi West 6.9 mph - N/A   Overcast
9:55 AM 48.0 °F - 19.6 °F 32% 29.84 in 10.0 mi SW 8.1 mph - N/A   Overcast
10:15 AM 51.6 °F - 21.2 °F 30% 29.84 in 10.0 mi West 11.5 mph - N/A   Overcast
10:35 AM 53.2 °F - 21.2 °F 29% 29.84 in 10.0 mi WNW 9.2 mph - N/A   Overcast
10:55 AM 55.0 °F - 21.2 °F 27% 29.83 in 10.0 mi WNW 10.4 mph - N/A   Overcast
11:15 AM 54.1 °F - 20.8 °F 27% 29.84 in 10.0 mi NW 5.8 mph - N/A   Overcast
11:35 AM 53.6 °F - 20.8 °F 28% 29.83 in 10.0 mi NW 5.8 mph - N/A   Overcast
11:55 AM 52.5 °F - 20.8 °F 29% 29.83 in 10.0 mi NW 5.8 mph - N/A   Overcast
12:15 PM 51.4 °F - 21.0 °F 30% 29.82 in 10.0 mi NNW 4.6 mph - N/A   Overcast
12:35 PM 49.6 °F - 21.6 °F 33% 29.82 in 10.0 mi NW 5.8 mph - N/A   Overcast
12:55 PM 49.5 °F - 21.2 °F 33% 29.81 in 10.0 mi NNW 8.1 mph - N/A   Overcast
1:15 PM 50.4 °F - 21.2 °F 32% 29.81 in 10.0 mi NNW 9.2 mph - N/A   Overcast
1:35 PM 51.4 °F - 20.8 °F 30% 29.81 in 10.0 mi North 16.1 mph - N/A   Overcast
1:55 PM 53.2 °F - 21.6 °F 29% 29.81 in 10.0 mi NW 15.0 mph 29.9 mph N/A   Overcast
2:15 PM 54.3 °F - 21.4 °F 28% 29.82 in 10.0 mi NNW 12.7 mph - N/A   Mostly Cloudy
2:35 PM 54.1 °F - 21.4 °F 28% 29.83 in 10.0 mi NNW 23.0 mph 27.6 mph N/A   Overcast
2:55 PM 53.6 °F - 22.5 °F 30% 29.84 in 10.0 mi NNW 24.2 mph 27.6 mph N/A   Mostly Cloudy
3:15 PM 52.3 °F - 23.0 °F 32% 29.85 in 10.0 mi NNW 17.3 mph - N/A   Scattered Clouds
3:55 PM 51.8 °F - 22.6 °F 32% 29.85 in 10.0 mi NNW 12.7 mph - N/A   Scattered Clouds
4:15 PM 51.3 °F - 22.1 °F 32% 29.85 in 10.0 mi NNW 9.2 mph - N/A   Scattered Clouds
4:35 PM 50.4 °F - 20.8 °F 31% 29.86 in 10.0 mi NNW 10.4 mph 17.3 mph N/A   Clear
4:55 PM 49.3 °F - 18.1 °F 29% 29.87 in 10.0 mi NNW 11.5 mph - N/A   Clear
5:15 PM 46.9 °F - 18.0 °F 32% 29.88 in 10.0 mi NW 10.4 mph - N/A   Clear
5:35 PM 46.4 °F 40.7 °F 16.5 °F 30% 29.89 in 10.0 mi NNW 12.7 mph - N/A   Clear
6:15 PM 42.3 °F 35.9 °F 15.8 °F 34% 29.91 in 10.0 mi NNW 11.5 mph - N/A   Clear
6:35 PM 43.2 °F 36.6 °F 16.5 °F 34% 29.92 in 10.0 mi NNW 12.7 mph - N/A   Clear
6:55 PM 41.0 °F 34.7 °F 17.2 °F 38% 29.93 in 10.0 mi NNW 10.4 mph - N/A   Clear
7:15 PM 40.6 °F 34.3 °F 17.6 °F 39% 29.94 in 10.0 mi NNW 10.4 mph - N/A   Scattered Clouds
7:35 PM 40.6 °F 33.8 °F 19.2 °F 42% 29.95 in 10.0 mi NNW 11.5 mph - N/A   Mostly Cloudy
7:55 PM 41.0 °F 33.5 °F 20.1 °F 43% 29.96 in 10.0 mi North 13.8 mph - N/A   Overcast
8:15 PM 40.1 °F 32.0 °F 20.8 °F 46% 29.98 in 10.0 mi North 15.0 mph - N/A   Overcast
8:35 PM 39.2 °F 31.6 °F 21.4 °F 49% 30.00 in 10.0 mi North 12.7 mph - N/A   Overcast
8:55 PM 38.5 °F 31.1 °F 22.1 °F 52% 30.01 in 10.0 mi North 11.5 mph - N/A   Overcast
9:15 PM 37.8 °F 30.7 °F 22.8 °F 55% 30.02 in 10.0 mi North 10.4 mph - N/A   Overcast
9:35 PM 37.2 °F 29.1 °F 23.0 °F 56% 30.02 in 10.0 mi North 12.7 mph - N/A   Overcast
9:55 PM 36.9 °F 28.7 °F 23.0 °F 57% 30.03 in 10.0 mi North 12.7 mph - N/A   Mostly Cloudy
10:15 PM 36.1 °F 27.7 °F 23.2 °F 59% 30.03 in 10.0 mi North 12.7 mph - N/A   Scattered Clouds
10:35 PM 34.9 °F 26.2 °F 23.4 °F 63% 30.04 in 10.0 mi North 12.7 mph - N/A   Scattered Clouds
10:55 PM 33.6 °F 25.0 °F 23.4 °F 66% 30.05 in 10.0 mi North 11.5 mph - N/A   Clear
11:15 PM 32.0 °F 23.0 °F 23.0 °F 69% 30.06 in 10.0 mi North 11.5 mph - N/A   Clear
11:35 PM 32.0 °F 21.6 °F 23.5 °F 71% 30.06 in 10.0 mi North 15.0 mph - N/A   Clear
11:55 PM 32.0 °F 22.1 °F 23.5 °F 71% 30.07 in 10.0 mi North 13.8 mph - N/A   Clear